STARLINK-31387, 59407

Orbit data source: Space-Track

STARLINK-31387, 59407 is a payload satellite owned by SpaceX/Seattle (US) in LEO that was launched on Fri, 05 Apr 2024 UTC via an FALCON 9 launch vehicle from the Air Force Eastern Test Range (AFETR). Payload-class satellites include a variety of spacecraft equipped with specific instruments for various scientific and technological missions. These include communications satellites like Starlink; space stations such as the ISS; scientific satellites like the Hubble; Earth observation satellites from companies like Planet Labs, Umbra, and HawkEye 360; GPS; miniature CubeSats for education and research; and military/defense satellites.

Loading next visibility...
Identifier
59407, 2024-064K
Orbit
LEO
Country
Flag of USUS
Related business
Manufacturer
SpaceX/Seattle
Mission
Operational Commercial Communications
Bus & Motor
STARLINK V2M, Unknown motor
Mass
730 kg wet, ~700 kg dry
Launch date (UTC)
2024-04-05 (2 years ago)
Launch vehicle
FALCON 9
Launch site
Air Force Eastern Test Range (AFETR)
Object type
Payload
Rocket body
Debris
Shape & HBR
Box + 2 Pan, 17.7 m
Radar Cross Section
33.884 m², Large (>1 m²)

Expand to show TLE details & history
Last TLE update: 2 days ago

TLE from 2 days ago
0 STARLINK-31387
1 59407U 24064K   26171.41703970 -.00002830  00000-0 -93358-4 0  9996
2 59407  43.0014 196.2769 0001275 269.3076  90.7629 15.27584082124931
Epoch: 2026-06-20T10:00Z
TLE epoch observation values (Epoch: 2026-06-20T10:00:32.230Z)
Latitude
-0.00004°
Longitude
137.5106°
Altitude
482.824 km
Speed
7.626 km/s
True Right ascension
13h 05m 06s
True Declination
0° 00' 00"
Sunlit
Object was in daylight at epoch
Visualization orbit readout
Latitude
Unknown
Longitude
Unknown
Altitude
Unknown
Speed
Unknown
Apparent Right ascension
Unknown
Apparent Declination
Unknown
Sunlit
N/A
Visualization observer readout
Local Sidereal Time
21:28:44
Azimuth
Unknown
Elevation
Unknown
Doppler factor
Unknown
Orbital elements
Apogee altitude
485.857 km
Perigee altitude
484.107 km
Semi-major axis
6,863.119 km
Eccentricity
0.00013
Inclination
43.0014°
RAAN
196.2769°
Arg. of periapsis
269.3076°
True anomaly
90.77751°
Mean anomaly
90.7629°
Eccentric anomaly
90.7702°
Mean motion
3.81734 °/min
Orbital period
94.31 mins
BSTAR
-0.000093358
Loading maneuver chart data...
Computing Atmospheric mass density...
Loading historical data...
Loading historical data...
Loading historical data...
Loading historical data...
Loading historical data...
Loading historical data...
Loading historical data...

Documentation

Showing up to 5 results
|